Volver al catálogo

ONEWEB-0188

ActivoComunicacionesPO
NORAD 48231·PAYLOAD·🇬🇧 United Kingdom

Lanzado Apr 25, 2021 desde Vostochny Cosmodrome

Loading…

Próximos Pases (próximas 24 horas)

TLE

ActualizadoSource: CelesTrak SupGP

Época: Sep 14, 2026, 15:52 UTC

1 48231C 21031X   26257.66126574 -.00001037  00000+0 -28003-2 0  2578
2 48231  87.8895 271.8743 0001904  93.3494 327.5186 13.14503871    19

Sigue ONEWEB-0188 en tiempo real con AllMySat

Download on the App Store